[[{"header":{"parameterUnit":"m.s-1","parameterCategory":1,"la1":30.2991,"la2":30.254,"lo1":-89.0895,"lo2":-89.0444,"dy":0.0017,"dx":0.0017,"nx":28,"ny":28,"refTime":"2024-07-12T09:00:00:Z","depth":0,"parameterNumber":2,"parameterNumberName":"U-component_of_WINDS"},"data":[0,0,0,0,0,0,0,0,0,0,0,0,0,0,0,0,0,0,0,0,0,0,0,0,0,0,0,0,0,0,0,0,0,0,0,0,0,0,0,0,0,0,0,0,0,0,0,0,0,0,0,0,0,0,0,0,0,0,3.7222,3.7224,0,3.7349,3.7351,3.7352,3.7299,3.7296,3.7293,3.729,3.742,3.7426,3.7432,0,0,0,0,0,0,0,0,0,0,0,0,0,3.6932,3.6937,3.7222,3.7224,3.7225,3.7349,3.7351,3.7353,3.7299,3.7296,3.7292,3.7288,3.7418,3.7425,3.7433,0,0,0,0,0,0,0,0,0,0,0,0,0,3.7058,3.6939,3.7222,3.7214,3.7214,3.7349,3.7351,3.7353,3.73,3.7295,3.7291,3.7287,3.7416,3.7425,3.7434,3.7584,0,0,3.7463,3.7467,0,0,0,0,0,0,0,0,3.7051,3.7069,3.7213,3.7214,3.7215,3.7303,3.7296,3.7431,3.7301,3.7267,3.729,3.7284,3.7385,3.7397,3.7431,3.759,3.7596,3.7464,3.747,3.7474,3.7476,0,0,0,0,0,0,0,3.7042,3.7063,3.7272,3.7215,3.7217,3.7203,3.7216,3.7321,3.735,3.727,3.7266,3.7282,3.7385,3.7422,3.7433,3.7598,3.7464,3.7472,3.7478,3.7482,3.7884,3.7889,0,0,0,0,0,0,3.7034,3.7056,3.7268,3.7276,3.712,3.7212,3.7226,3.728,3.7349,3.7355,3.7286,3.7279,3.7408,3.7422,3.7438,3.7616,3.7474,3.7483,3.7488,3.7879,3.7885,3.7891,0,0,0,0,0,0,3.7028,3.7053,3.7263,3.7165,3.7191,3.7222,3.7282,3.7285,3.7322,3.7361,3.7366,3.7319,3.7405,3.7424,3.7548,3.7619,3.7487,3.7495,3.7873,3.7881,3.7888,3.7975,0,0,0,0,0,0,3.702,3.7051,3.7109,3.7167,3.7197,3.7372,3.7287,3.7291,3.7338,3.733,3.7393,3.7399,3.7403,3.7534,3.7557,3.763,3.7503,3.7867,3.7877,3.7886,3.7965,3.7984,3.8,0,0,0,0,0,3.7009,3.7129,3.7112,3.7138,3.727,3.7376,3.7393,3.7395,3.7344,3.7402,3.7427,3.7397,3.7608,3.7547,3.7573,3.765,3.7863,3.7874,3.7885,3.7958,3.798,3.8,0,0,0,0,0,0,3.7079,3.7137,3.7119,3.7261,3.7314,3.7367,3.744,3.7419,3.7488,3.7478,3.7477,3.7492,3.7618,3.7647,3.7577,3.7797,3.7728,3.7745,3.7774,3.7796,3.7813,3.7803,3.7511,0,0,0,0,0,3.7111,3.7193,3.7239,3.736,3.7387,3.7409,3.7456,3.7452,3.7507,3.753,3.7564,3.7618,3.7696,3.7748,3.7823,3.797,3.7981,3.8035,3.8053,3.8067,3.8081,3.8158,3.8182,3.7928,3.7928,3.7928,0,0,3.7178,3.7219,3.7271,3.7375,3.7415,3.7499,3.7429,3.7521,3.7583,3.7544,3.7661,3.7688,3.7749,3.7884,3.7945,3.7911,3.8154,3.8081,3.8092,3.8099,3.8172,3.8196,3.8217,3.7936,3.7934,3.7933,0,0,3.7342,3.7383,3.7486,3.7528,3.7591,3.7604,3.7629,3.7685,3.7701,3.782,3.7791,3.7865,3.8001,3.8044,3.8084,3.8263,3.8236,3.8287,3.8377,3.8452,3.8472,3.849,3.8551,3.8573,3.8302,3.8302,3.8302,0,3.7417,3.7543,3.7543,3.7637,3.7682,3.765,3.7754,3.7795,3.7879,3.791,3.7872,3.8039,3.8078,3.8222,3.8265,3.8299,3.8326,3.8279,3.8469,3.8487,3.8504,3.8562,3.8585,3.8307,3.8307,3.8306,3.8306,0,3.763,3.7718,3.7794,3.7875,3.7929,3.8028,3.8042,3.8097,3.8089,3.8106,3.8225,3.8271,3.8352,3.8387,3.838,3.8529,3.8505,3.8469,3.8398,3.8533,3.8588,3.861,3.8315,3.8313,3.8312,3.831,0,0,3.7842,3.792,3.7948,3.7983,3.8049,3.8116,3.8213,3.8292,3.8338,3.8397,3.8477,3.8592,3.8557,3.8602,3.86,3.8667,3.8802,3.8621,3.8622,3.865,3.8965,3.8991,3.9017,3.8786,3.879,3.8793,3.8959,0,3.8009,3.8178,3.818,3.8335,3.8415,3.8385,3.8469,3.8518,3.8536,3.8606,3.8627,3.8707,3.8657,3.8683,3.8748,3.8772,3.8864,3.876,3.8858,3.8861,3.8841,3.9046,3.9074,3.9228,3.8981,3.8984,3.8987,0,3.8226,3.829,3.8453,3.8505,3.8539,3.8614,3.8686,3.8754,3.8808,3.8816,3.8866,3.8854,3.8951,3.8879,3.9012,3.8941,3.8981,3.8999,3.9005,3.9012,3.8931,3.9056,3.9277,3.9299,3.9021,3.9018,3.9016,0,3.836,3.8488,3.8601,3.8633,3.8697,3.875,3.8779,3.8829,3.8876,3.8939,3.8969,3.9043,3.9083,3.914,3.9147,3.9094,3.928,3.9209,3.9288,3.9288,3.9327,3.9324,3.9555,3.9357,3.9357,3.9356,3.9356,0,3.8545,3.8645,3.8662,3.8731,3.8842,3.8843,3.8953,3.8978,3.9022,3.9095,3.9074,3.9143,3.915,3.922,3.9227,3.9334,3.9353,3.9361,3.9361,3.9362,3.936,3.9386,3.9375,3.9363,3.9361,3.936,3.9359,0,3.8713,3.8729,3.885,3.89,3.8915,3.8994,3.9037,3.9103,3.9119,3.9211,3.9233,3.9259,3.934,3.9353,3.945,3.9454,3.9582,3.9572,3.9563,3.9561,3.9638,3.963,3.9892,3.9925,3.9709,3.9711,3.9712,0,3.8829,3.8905,3.8963,3.901,3.9042,3.9118,3.9166,3.917,3.922,3.9286,3.9343,3.9423,3.9486,3.9618,3.9645,3.9718,3.9708,3.9795,3.9719,3.9716,3.9706,3.97,3.9707,3.9809,3.9811,3.9813,3.9815,0,3.9032,3.9035,3.9104,3.9176,3.9232,3.9289,3.9342,3.9382,3.9393,3.945,3.9533,3.9582,3.9679,3.9758,3.983,3.9859,3.9838,3.9839,3.986,3.986,3.9851,3.9854,3.96,3.9832,3.9831,3.9829,3.9828,3.9828,3.9175,3.924,3.9291,3.9367,3.9408,3.9458,3.9521,3.9545,3.9614,3.9693,3.9691,3.9782,3.9832,3.9927,3.9961,4.0031,4.0002,4.0035,4.0042,4.0049,4.0055,3.9842,4.0044,4.0044,4.0043,4.0043,4.0043,0,3.9374,3.9405,3.9476,3.955,3.961,3.9586,3.9643,3.9695,3.9774,3.9823,3.9886,3.998,4.0055,4.0088,4.0161,4.0211,4.0203,4.023,4.0225,4.0231,4.0078,4.005,4.0235,4.0235,4.0235,4.0235,4.0235,4.0235,3.9485,3.9593,3.9602,3.9729,3.9759,3.9847,3.9881,3.9926,3.9965,4.007,4.0133,4.0153,4.0195,4.0271,4.0339,4.0346,4.0373,4.0404,4.0407,4.0262,4.0243,4.0224,4.0198,4.041,4.0411,4.0554,4.0555,4.0556]},{"header":{"parameterUnit":"m.s-1","parameterCategory":1,"la1":30.2991,"la2":30.254,"lo1":-89.0895,"lo2":-89.0444,"dy":0.0017,"dx":0.0017,"nx":28,"ny":28,"refTime":"2024-07-12T09:00:00:Z","depth":0,"parameterNumber":3,"parameterNumberName":"V-component_of_WINDS"},"data":[0,0,0,0,0,0,0,0,0,0,0,0,0,0,0,0,0,0,0,0,0,0,0,0,0,0,0,0,0,0,0,0,0,0,0,0,0,0,0,0,0,0,0,0,0,0,0,0,0,0,0,0,0,0,0,0,0,0,0.3525,0.3525,0,0.3496,0.3496,0.3496,0.3461,0.346,0.346,0.3459,0.3431,0.343,0.343,0,0,0,0,0,0,0,0,0,0,0,0,0,0.3548,0.3548,0.3525,0.3525,0.3524,0.3497,0.3496,0.3496,0.3461,0.346,0.3459,0.3459,0.3431,0.343,0.343,0,0,0,0,0,0,0,0,0,0,0,0,0,0.3531,0.3548,0.3525,0.3503,0.3501,0.3497,0.3496,0.3496,0.3461,0.346,0.3459,0.3458,0.3431,0.343,0.343,0.3445,0,0,0.3429,0.3429,0,0,0,0,0,0,0,0,0.3532,0.353,0.3507,0.3505,0.3502,0.3481,0.3494,0.3479,0.3461,0.3476,0.3459,0.3458,0.3448,0.3446,0.3443,0.3443,0.3442,0.3429,0.3429,0.3429,0.3429,0,0,0,0,0,0,0,0.3533,0.3531,0.3514,0.3507,0.3504,0.3495,0.3491,0.3491,0.3467,0.3475,0.3472,0.3469,0.3447,0.3443,0.3442,0.3442,0.3429,0.3429,0.3428,0.3428,0.345,0.3451,0,0,0,0,0,0,0.3538,0.3532,0.3515,0.3513,0.3515,0.3495,0.3491,0.3489,0.3467,0.3463,0.347,0.3468,0.3444,0.3442,0.3441,0.3455,0.3429,0.3428,0.3428,0.345,0.3451,0.3451,0,0,0,0,0,0,0.3538,0.3536,0.3516,0.3522,0.3518,0.3496,0.3493,0.3489,0.3485,0.3464,0.3459,0.3471,0.3444,0.3441,0.3443,0.3454,0.3428,0.3428,0.3449,0.345,0.3451,0.3485,0,0,0,0,0,0,0.3539,0.3537,0.3543,0.3522,0.3518,0.3519,0.3494,0.3489,0.3485,0.3481,0.3463,0.3459,0.3443,0.3444,0.3443,0.3453,0.3428,0.3448,0.3449,0.3451,0.3483,0.3487,0.3491,0,0,0,0,0,0.354,0.3554,0.3543,0.3541,0.3525,0.352,0.3518,0.3498,0.3486,0.3491,0.3476,0.346,0.3453,0.3445,0.3443,0.3453,0.3447,0.3449,0.3451,0.3481,0.3487,0.3491,0,0,0,0,0,0,0.3577,0.3551,0.3539,0.3546,0.3536,0.3514,0.352,0.3505,0.3498,0.3495,0.3471,0.3467,0.3472,0.3463,0.3454,0.3465,0.3447,0.3449,0.3471,0.3476,0.348,0.3482,0.3427,0,0,0,0,0,0.3586,0.3584,0.3561,0.357,0.3565,0.3544,0.3541,0.3526,0.3515,0.351,0.3496,0.3485,0.348,0.3477,0.3472,0.3481,0.3476,0.3487,0.3491,0.3495,0.3496,0.3499,0.3503,0.3457,0.3457,0.3457,0,0,0.3604,0.359,0.359,0.3577,0.3567,0.3565,0.354,0.354,0.3538,0.351,0.3511,0.35,0.3486,0.3491,0.3493,0.3484,0.3508,0.3497,0.35,0.35,0.3501,0.3506,0.351,0.3459,0.3458,0.3458,0,0,0.3637,0.3627,0.3632,0.3622,0.3607,0.3592,0.3593,0.3574,0.3565,0.3565,0.3544,0.3541,0.3533,0.3524,0.3518,0.3545,0.3529,0.3544,0.3565,0.3568,0.3572,0.3575,0.3584,0.3587,0.3545,0.3545,0.3546,0,0.3663,0.3659,0.3637,0.3638,0.3632,0.3605,0.361,0.3601,0.3585,0.3582,0.3571,0.356,0.3549,0.3551,0.3557,0.3553,0.3554,0.3546,0.3573,0.3576,0.3578,0.3587,0.359,0.3547,0.3547,0.3547,0.3547,0,0.3691,0.3688,0.3695,0.3679,0.3674,0.3677,0.3654,0.3652,0.3637,0.3623,0.3623,0.3608,0.3598,0.3598,0.3584,0.3597,0.3592,0.3577,0.3559,0.3585,0.3592,0.3595,0.355,0.3549,0.3549,0.3548,0,0,0.3748,0.3718,0.3721,0.3713,0.3693,0.369,0.3691,0.3681,0.3679,0.3668,0.3668,0.3661,0.3647,0.364,0.3625,0.3627,0.3648,0.3612,0.3611,0.3619,0.3661,0.3672,0.3676,0.3637,0.3637,0.3638,0.3662,0,0.3777,0.3777,0.3756,0.3762,0.3759,0.3732,0.3733,0.372,0.3707,0.3702,0.3687,0.3682,0.3664,0.366,0.3661,0.3645,0.3656,0.3643,0.3636,0.3636,0.3641,0.368,0.3692,0.3715,0.3665,0.3665,0.3665,0,0.3812,0.3802,0.3807,0.3785,0.3783,0.3784,0.3772,0.3768,0.3753,0.3743,0.3734,0.3716,0.3714,0.3697,0.3694,0.3685,0.3681,0.3672,0.3673,0.3672,0.3653,0.368,0.3722,0.3726,0.367,0.3669,0.3669,0,0.3853,0.3841,0.3842,0.3835,0.381,0.3811,0.3801,0.3784,0.3779,0.3768,0.3764,0.3754,0.3748,0.374,0.3719,0.3708,0.3718,0.3699,0.3709,0.371,0.3713,0.3713,0.3756,0.371,0.371,0.371,0.371,0,0.3888,0.3892,0.3859,0.386,0.3863,0.3839,0.3842,0.3829,0.3815,0.3812,0.3788,0.3786,0.3758,0.3753,0.3736,0.3736,0.3733,0.3725,0.372,0.3727,0.3728,0.3724,0.3722,0.3711,0.3711,0.3711,0.371,0,0.3934,0.3913,0.3912,0.3887,0.3881,0.3885,0.3863,0.3863,0.3847,0.3843,0.3841,0.3816,0.3808,0.3786,0.3773,0.3762,0.3766,0.3757,0.3771,0.3768,0.3779,0.3779,0.3821,0.3825,0.3777,0.3778,0.3778,0,0.3958,0.3961,0.3936,0.3932,0.3922,0.3916,0.391,0.3885,0.388,0.3861,0.3862,0.3852,0.3843,0.3831,0.3812,0.3801,0.3792,0.3808,0.3791,0.3797,0.3792,0.3792,0.3792,0.3812,0.3812,0.3813,0.3813,0,0.4003,0.3991,0.3984,0.3971,0.3964,0.3954,0.3942,0.394,0.3912,0.3906,0.3898,0.389,0.3876,0.3866,0.3851,0.384,0.3822,0.3819,0.382,0.3827,0.3835,0.383,0.3781,0.3818,0.3818,0.3817,0.3817,0.3817,0.4038,0.4039,0.4021,0.4012,0.4,0.3989,0.3987,0.397,0.3962,0.3948,0.3933,0.3926,0.3908,0.3887,0.3877,0.387,0.386,0.3863,0.3864,0.3865,0.3868,0.3836,0.3867,0.3867,0.3867,0.3867,0.3867,0,0.4082,0.4068,0.406,0.4044,0.4037,0.4019,0.4004,0.4,0.3993,0.3978,0.3969,0.3958,0.3948,0.3927,0.3914,0.3913,0.3904,0.391,0.391,0.3907,0.3877,0.3877,0.3917,0.3917,0.3917,0.3917,0.3917,0.3917,0.4103,0.4102,0.4088,0.4081,0.4067,0.4059,0.4052,0.4041,0.4029,0.4018,0.4009,0.3995,0.3977,0.3963,0.3952,0.3946,0.3942,0.3951,0.3943,0.3915,0.391,0.3905,0.3905,0.3951,0.3951,0.3973,0.3974,0.3974]}]]